Year,Month,Day,Hour,Minute,Value (Times are PST for temperature in C)
2014,07,12,00,00,21.90
2014,07,12,00,01,21.90
2014,07,12,00,02,21.90
2014,07,12,00,03,21.90
2014,07,12,00,04,21.90
2014,07,12,00,05,21.80
2014,07,12,00,06,21.80
2014,07,12,00,07,21.80
2014,07,12,00,08,21.80
2014,07,12,00,09,21.80
2014,07,12,00,10,21.80
2014,07,12,00,11,21.80
2014,07,12,00,12,21.80
2014,07,12,00,13,21.70
2014,07,12,00,14,21.70
2014,07,12,00,15,21.70
2014,07,12,00,16,21.70
2014,07,12,00,17,21.70
2014,07,12,00,18,21.70
2014,07,12,00,19,21.60
2014,07,12,00,20,21.60
2014,07,12,00,21,21.60
2014,07,12,00,22,21.60
2014,07,12,00,23,21.50
2014,07,12,00,24,21.50
2014,07,12,00,25,21.50
2014,07,12,00,26,21.40
2014,07,12,00,27,21.40
2014,07,12,00,28,21.40
2014,07,12,00,29,21.40
2014,07,12,00,30,21.30
2014,07,12,00,31,21.30
2014,07,12,00,32,21.30
2014,07,12,00,33,21.30
2014,07,12,00,34,21.20
2014,07,12,00,35,21.20
2014,07,12,00,36,21.20
2014,07,12,00,37,21.10
2014,07,12,00,38,21.10
2014,07,12,00,39,21.10
2014,07,12,00,40,21.00
2014,07,12,00,41,20.90
2014,07,12,00,42,20.90
2014,07,12,00,43,20.80
2014,07,12,00,44,20.80
2014,07,12,00,45,20.70
2014,07,12,00,46,20.70
2014,07,12,00,47,20.70
2014,07,12,00,48,20.60
2014,07,12,00,49,20.60
2014,07,12,00,50,20.50
2014,07,12,00,51,20.50
2014,07,12,00,52,20.40
2014,07,12,00,53,20.30
2014,07,12,00,54,20.30
2014,07,12,00,55,20.20
2014,07,12,00,56,20.20
2014,07,12,00,57,20.10
2014,07,12,00,58,20.10
2014,07,12,00,59,20.00
2014,07,12,01,00,19.90
2014,07,12,01,01,19.90
2014,07,12,01,02,19.80
2014,07,12,01,03,19.80
2014,07,12,01,04,19.70
2014,07,12,01,05,19.70
2014,07,12,01,06,19.60
2014,07,12,01,07,19.60
2014,07,12,01,08,19.50
2014,07,12,01,09,19.50
2014,07,12,01,10,19.40
2014,07,12,01,11,19.30
2014,07,12,01,12,19.30
2014,07,12,01,13,19.20
2014,07,12,01,14,19.20
2014,07,12,01,15,19.10
2014,07,12,01,16,19.10
2014,07,12,01,17,19.00
2014,07,12,01,18,19.00
2014,07,12,01,19,18.90
2014,07,12,01,20,18.90
2014,07,12,01,21,18.80
2014,07,12,01,22,18.80
2014,07,12,01,23,18.70
2014,07,12,01,24,18.70
2014,07,12,01,25,18.60
2014,07,12,01,26,18.60
2014,07,12,01,27,18.50
2014,07,12,01,28,18.50
2014,07,12,01,29,18.50
2014,07,12,01,30,18.40
2014,07,12,01,31,18.40
2014,07,12,01,32,18.40
2014,07,12,01,33,18.40
2014,07,12,01,34,18.40
2014,07,12,01,35,18.40
2014,07,12,01,36,18.40
2014,07,12,01,37,18.50
2014,07,12,01,38,18.50
2014,07,12,01,39,18.50
2014,07,12,01,40,18.60
2014,07,12,01,41,18.60
2014,07,12,01,42,18.60
2014,07,12,01,43,18.60
2014,07,12,01,44,18.70
2014,07,12,01,45,18.70
2014,07,12,01,46,18.70
2014,07,12,01,47,18.70
2014,07,12,01,48,18.70
2014,07,12,01,49,18.70
2014,07,12,01,50,18.70
2014,07,12,01,51,18.70
2014,07,12,01,52,18.70
2014,07,12,01,53,18.70
2014,07,12,01,54,18.70
2014,07,12,01,55,18.70
2014,07,12,01,56,18.70
2014,07,12,01,57,18.70
2014,07,12,01,58,18.70
2014,07,12,01,59,18.70
2014,07,12,02,00,18.70
2014,07,12,02,01,18.70
2014,07,12,02,02,18.70
2014,07,12,02,03,18.70
2014,07,12,02,04,18.70
2014,07,12,02,05,18.70
2014,07,12,02,06,18.60
2014,07,12,02,07,18.60
2014,07,12,02,08,18.60
2014,07,12,02,09,18.60
2014,07,12,02,10,18.50
2014,07,12,02,11,18.50
2014,07,12,02,12,18.50
2014,07,12,02,13,18.50
2014,07,12,02,14,18.40
2014,07,12,02,15,18.40
2014,07,12,02,16,18.40
2014,07,12,02,17,18.40
2014,07,12,02,18,18.30
2014,07,12,02,19,18.30
2014,07,12,02,20,18.30
2014,07,12,02,21,18.30
2014,07,12,02,22,18.20
2014,07,12,02,23,18.20
2014,07,12,02,24,18.20
2014,07,12,02,25,18.10
2014,07,12,02,26,18.10
2014,07,12,02,27,18.10
2014,07,12,02,28,18.10
2014,07,12,02,29,18.10
2014,07,12,02,30,18.10
2014,07,12,02,31,18.10
2014,07,12,02,32,18.10
2014,07,12,02,33,18.00
2014,07,12,02,34,18.00
2014,07,12,02,35,18.00
2014,07,12,02,36,18.00
2014,07,12,02,37,18.00
2014,07,12,02,38,18.00
2014,07,12,02,39,17.90
2014,07,12,02,40,17.90
2014,07,12,02,41,17.90
2014,07,12,02,42,17.90
2014,07,12,02,43,17.90
2014,07,12,02,44,17.90
2014,07,12,02,45,17.80
2014,07,12,02,46,17.80
2014,07,12,02,47,17.80
2014,07,12,02,48,17.80
2014,07,12,02,49,17.80
2014,07,12,02,50,17.80
2014,07,12,02,51,17.80
2014,07,12,02,52,17.80
2014,07,12,02,53,17.70
2014,07,12,02,54,17.70
2014,07,12,02,55,17.70
2014,07,12,02,56,17.70
2014,07,12,02,57,17.70
2014,07,12,02,58,17.60
2014,07,12,02,59,17.60
2014,07,12,03,00,17.60
2014,07,12,03,01,17.60
2014,07,12,03,02,17.60
2014,07,12,03,03,17.60
2014,07,12,03,04,17.50
2014,07,12,03,05,17.50
2014,07,12,03,06,17.50
2014,07,12,03,07,17.50
2014,07,12,03,08,17.50
2014,07,12,03,09,17.40
2014,07,12,03,10,17.40
2014,07,12,03,11,17.40
2014,07,12,03,12,17.40
2014,07,12,03,13,17.40
2014,07,12,03,14,17.40
2014,07,12,03,15,17.40
2014,07,12,03,16,17.30
2014,07,12,03,17,17.30
2014,07,12,03,18,17.30
2014,07,12,03,19,17.30
2014,07,12,03,20,17.20
2014,07,12,03,21,17.20
2014,07,12,03,22,17.20
2014,07,12,03,23,17.20
2014,07,12,03,24,17.10
2014,07,12,03,25,17.10
2014,07,12,03,26,17.10
2014,07,12,03,27,17.10
2014,07,12,03,28,17.10
2014,07,12,03,29,17.10
2014,07,12,03,30,17.00
2014,07,12,03,31,17.00
2014,07,12,03,32,17.00
2014,07,12,03,33,16.90
2014,07,12,03,34,16.90
2014,07,12,03,35,16.90
2014,07,12,03,36,16.90
2014,07,12,03,37,16.80
2014,07,12,03,38,16.80
2014,07,12,03,39,16.80
2014,07,12,03,40,16.80
2014,07,12,03,41,16.70
2014,07,12,03,42,16.70
2014,07,12,03,43,16.70
2014,07,12,03,44,16.70
2014,07,12,03,45,16.70
2014,07,12,03,46,16.60
2014,07,12,03,47,16.60
2014,07,12,03,48,16.60
2014,07,12,03,49,16.60
2014,07,12,03,50,16.50
2014,07,12,03,51,16.50
2014,07,12,03,52,16.50
2014,07,12,03,53,16.40
2014,07,12,03,54,16.40
2014,07,12,03,55,16.40
2014,07,12,03,56,16.40
2014,07,12,03,57,16.40
2014,07,12,03,58,16.30
2014,07,12,03,59,16.30
2014,07,12,04,00,16.30
2014,07,12,04,01,16.30
2014,07,12,04,02,16.30
2014,07,12,04,03,16.30
2014,07,12,04,04,16.30
2014,07,12,04,05,16.30
2014,07,12,04,06,16.30
2014,07,12,04,07,16.30
2014,07,12,04,08,16.40
2014,07,12,04,09,16.40
2014,07,12,04,10,16.40
2014,07,12,04,11,16.40
2014,07,12,04,12,16.40
2014,07,12,04,13,16.40
2014,07,12,04,14,16.40
2014,07,12,04,15,16.50
2014,07,12,04,16,16.50
2014,07,12,04,17,16.50
2014,07,12,04,18,16.50
2014,07,12,04,19,16.50
2014,07,12,04,20,16.60
2014,07,12,04,21,16.60
2014,07,12,04,22,16.60
2014,07,12,04,23,16.60
2014,07,12,04,24,16.70
2014,07,12,04,25,16.70
2014,07,12,04,26,16.70
2014,07,12,04,27,16.70
2014,07,12,04,28,16.70
2014,07,12,04,29,16.80
2014,07,12,04,30,16.80
2014,07,12,04,31,16.80
2014,07,12,04,32,16.80
2014,07,12,04,33,16.80
2014,07,12,04,34,16.80
2014,07,12,04,35,16.80
2014,07,12,04,36,16.80
2014,07,12,04,37,16.80
2014,07,12,04,38,16.80
2014,07,12,04,39,16.80
2014,07,12,04,40,16.80
2014,07,12,04,41,16.90
2014,07,12,04,42,16.90
2014,07,12,04,43,16.90
2014,07,12,04,44,16.90
2014,07,12,04,45,16.90
2014,07,12,04,46,16.90
2014,07,12,04,47,16.90
2014,07,12,04,48,16.90
2014,07,12,04,49,16.90
2014,07,12,04,50,16.90
2014,07,12,04,51,16.90
2014,07,12,04,52,16.90
2014,07,12,04,53,17.00
2014,07,12,04,54,17.00
2014,07,12,04,55,17.00
2014,07,12,04,56,17.00
2014,07,12,04,57,16.90
2014,07,12,04,58,16.90
2014,07,12,04,59,16.90
2014,07,12,05,00,16.90
2014,07,12,05,01,16.90
2014,07,12,05,02,16.90
2014,07,12,05,03,16.90
2014,07,12,05,04,16.90
2014,07,12,05,05,16.90
2014,07,12,05,06,16.90
2014,07,12,05,07,16.90
2014,07,12,05,08,16.90
2014,07,12,05,09,16.90
2014,07,12,05,10,16.80
2014,07,12,05,11,16.80
2014,07,12,05,12,16.80
2014,07,12,05,13,16.80
2014,07,12,05,14,16.80
2014,07,12,05,15,16.80
2014,07,12,05,16,16.80
2014,07,12,05,17,16.80
2014,07,12,05,18,16.80
2014,07,12,05,19,16.70
2014,07,12,05,20,16.70
2014,07,12,05,21,16.70
2014,07,12,05,22,16.70
2014,07,12,05,23,16.70
2014,07,12,05,24,16.70
2014,07,12,05,25,16.70
2014,07,12,05,26,16.70
2014,07,12,05,27,16.70
2014,07,12,05,28,16.60
2014,07,12,05,29,16.60
2014,07,12,05,30,16.60
2014,07,12,05,31,16.60
2014,07,12,05,32,16.50
2014,07,12,05,33,16.50
2014,07,12,05,34,16.50
2014,07,12,05,35,16.50
2014,07,12,05,36,16.40
2014,07,12,05,37,16.40
2014,07,12,05,38,16.40
2014,07,12,05,39,16.40
2014,07,12,05,40,16.40
2014,07,12,05,41,16.40
2014,07,12,05,42,16.40
2014,07,12,05,43,16.30
2014,07,12,05,44,16.30
2014,07,12,05,45,16.30
2014,07,12,05,46,16.30
2014,07,12,05,47,16.30
2014,07,12,05,48,16.30
2014,07,12,05,49,16.30
2014,07,12,05,50,16.30
2014,07,12,05,51,16.30
2014,07,12,05,52,16.30
2014,07,12,05,53,16.30
2014,07,12,05,54,16.30
2014,07,12,05,55,16.30
2014,07,12,05,56,16.30
2014,07,12,05,57,16.30
2014,07,12,05,58,16.30
2014,07,12,05,59,16.30
2014,07,12,06,00,16.30
2014,07,12,06,01,16.30
2014,07,12,06,02,16.30
2014,07,12,06,03,16.20
2014,07,12,06,04,16.20
2014,07,12,06,05,16.20
2014,07,12,06,06,16.20
2014,07,12,06,07,16.20
2014,07,12,06,08,16.20
2014,07,12,06,09,16.20
2014,07,12,06,10,16.20
2014,07,12,06,11,16.20
2014,07,12,06,12,16.20
2014,07,12,06,13,16.10
2014,07,12,06,14,16.20
2014,07,12,06,15,16.10
2014,07,12,06,16,16.10
2014,07,12,06,17,16.10
2014,07,12,06,18,16.10
2014,07,12,06,19,16.10
2014,07,12,06,20,16.10
2014,07,12,06,21,16.10
2014,07,12,06,22,16.10
2014,07,12,06,23,16.10
2014,07,12,06,24,16.10
2014,07,12,06,25,16.10
2014,07,12,06,26,16.10
2014,07,12,06,27,16.10
2014,07,12,06,28,16.20
2014,07,12,06,29,16.20
2014,07,12,06,30,16.20
2014,07,12,06,31,16.20
2014,07,12,06,32,16.20
2014,07,12,06,33,16.20
2014,07,12,06,34,16.20
2014,07,12,06,35,16.20
2014,07,12,06,36,16.20
2014,07,12,06,37,16.20
2014,07,12,06,38,16.20
2014,07,12,06,39,16.20
2014,07,12,06,40,16.20
2014,07,12,06,41,16.20
2014,07,12,06,42,16.20
2014,07,12,06,43,16.20
2014,07,12,06,44,16.20
2014,07,12,06,45,16.20
2014,07,12,06,46,16.30
2014,07,12,06,47,16.30
2014,07,12,06,48,16.30
2014,07,12,06,49,16.30
2014,07,12,06,50,16.40
2014,07,12,06,51,16.40
2014,07,12,06,52,16.40
2014,07,12,06,53,16.40
2014,07,12,06,54,16.40
2014,07,12,06,55,16.50
2014,07,12,06,56,16.50
2014,07,12,06,57,16.50
2014,07,12,06,58,16.60
2014,07,12,06,59,16.60
2014,07,12,07,00,16.60
2014,07,12,07,01,16.60
2014,07,12,07,02,16.60
2014,07,12,07,03,16.70
2014,07,12,07,04,16.70
2014,07,12,07,05,16.70
2014,07,12,07,06,16.70
2014,07,12,07,07,16.80
2014,07,12,07,08,16.80
2014,07,12,07,09,16.80
2014,07,12,07,10,16.80
2014,07,12,07,11,16.90
2014,07,12,07,12,16.90
2014,07,12,07,13,16.90
2014,07,12,07,14,17.00
2014,07,12,07,15,17.00
2014,07,12,07,16,17.10
2014,07,12,07,17,17.10
2014,07,12,07,18,17.10
2014,07,12,07,19,17.20
2014,07,12,07,20,17.20
2014,07,12,07,21,17.20
2014,07,12,07,22,17.30
2014,07,12,07,23,17.30
2014,07,12,07,24,17.30
2014,07,12,07,25,17.30
2014,07,12,07,26,17.40
2014,07,12,07,27,17.40
2014,07,12,07,28,17.50
2014,07,12,07,29,17.50
2014,07,12,07,30,17.60
2014,07,12,07,31,17.60
2014,07,12,07,32,17.70
2014,07,12,07,33,17.70
2014,07,12,07,34,17.70
2014,07,12,07,35,17.80
2014,07,12,07,36,17.80
2014,07,12,07,37,17.90
2014,07,12,07,38,18.00
2014,07,12,07,39,18.00
2014,07,12,07,40,18.10
2014,07,12,07,41,18.10
2014,07,12,07,42,18.20
2014,07,12,07,43,18.20
2014,07,12,07,44,18.30
2014,07,12,07,45,18.30
2014,07,12,07,46,18.40
2014,07,12,07,47,18.40
2014,07,12,07,48,18.50
2014,07,12,07,49,18.50
2014,07,12,07,50,18.60
2014,07,12,07,51,18.70
2014,07,12,07,52,18.80
2014,07,12,07,53,18.80
2014,07,12,07,54,18.90
2014,07,12,07,55,18.90
2014,07,12,07,56,19.00
2014,07,12,07,57,19.00
2014,07,12,07,58,19.00
2014,07,12,07,59,19.10
2014,07,12,08,00,19.10
2014,07,12,08,01,19.10
2014,07,12,08,02,19.20
2014,07,12,08,03,19.20
2014,07,12,08,04,19.20
2014,07,12,08,05,19.20
2014,07,12,08,06,19.30
2014,07,12,08,07,19.30
2014,07,12,08,08,19.30
2014,07,12,08,09,19.30
2014,07,12,08,10,19.30
2014,07,12,08,11,19.40
2014,07,12,08,12,19.40
2014,07,12,08,13,19.40
2014,07,12,08,14,19.50
2014,07,12,08,15,19.50
2014,07,12,08,16,19.60
2014,07,12,08,17,19.60
2014,07,12,08,18,19.60
2014,07,12,08,19,19.70
2014,07,12,08,20,19.70
2014,07,12,08,21,19.80
2014,07,12,08,22,19.90
2014,07,12,08,23,20.00
2014,07,12,08,24,20.10
2014,07,12,08,25,20.30
2014,07,12,08,26,20.30
2014,07,12,08,27,20.40
2014,07,12,08,28,20.50
2014,07,12,08,29,20.60
2014,07,12,08,30,20.70
2014,07,12,08,31,20.70
2014,07,12,08,32,20.70
2014,07,12,08,33,20.80
2014,07,12,08,34,20.80
2014,07,12,08,35,20.80
2014,07,12,08,36,20.80
2014,07,12,08,37,20.80
2014,07,12,08,38,20.80
2014,07,12,08,39,20.80
2014,07,12,08,40,20.80
2014,07,12,08,41,20.80
2014,07,12,08,42,20.90
2014,07,12,08,43,20.80
2014,07,12,08,44,20.90
2014,07,12,08,45,20.90
2014,07,12,08,46,20.90
2014,07,12,08,47,20.90
2014,07,12,08,48,21.00
2014,07,12,08,49,21.00
2014,07,12,08,50,21.10
2014,07,12,08,51,21.10
2014,07,12,08,52,21.10
2014,07,12,08,53,21.10
2014,07,12,08,54,21.20
2014,07,12,08,55,21.20
2014,07,12,08,56,21.20
2014,07,12,08,57,21.30
2014,07,12,08,58,21.30
2014,07,12,08,59,21.30
2014,07,12,09,00,21.40
2014,07,12,09,01,21.40
2014,07,12,09,02,21.50
2014,07,12,09,03,21.50
2014,07,12,09,04,21.60
2014,07,12,09,05,21.60
2014,07,12,09,06,21.70
2014,07,12,09,07,21.70
2014,07,12,09,08,21.70
2014,07,12,09,09,21.80
2014,07,12,09,10,21.80
2014,07,12,09,11,21.80
2014,07,12,09,12,21.80
2014,07,12,09,13,21.90
2014,07,12,09,14,21.90
2014,07,12,09,15,21.90
2014,07,12,09,16,21.90
2014,07,12,09,17,22.00
2014,07,12,09,18,22.00
2014,07,12,09,19,22.10
2014,07,12,09,20,22.10
2014,07,12,09,21,22.20
2014,07,12,09,22,22.20
2014,07,12,09,23,22.20
2014,07,12,09,24,22.30
2014,07,12,09,25,22.30
2014,07,12,09,26,22.30
2014,07,12,09,27,22.30
2014,07,12,09,28,22.40
2014,07,12,09,29,22.40
2014,07,12,09,30,22.40
2014,07,12,09,31,22.40
2014,07,12,09,32,22.40
2014,07,12,09,33,22.40
2014,07,12,09,34,22.50
2014,07,12,09,35,22.50
2014,07,12,09,36,22.50
2014,07,12,09,37,22.50
2014,07,12,09,38,22.50
2014,07,12,09,39,22.50
2014,07,12,09,40,22.50
2014,07,12,09,41,22.50
2014,07,12,09,42,22.60
2014,07,12,09,43,22.60
2014,07,12,09,44,22.60
2014,07,12,09,45,22.60
2014,07,12,09,46,22.60
2014,07,12,09,47,22.70
2014,07,12,09,48,22.70
2014,07,12,09,49,22.70
2014,07,12,09,50,22.70
2014,07,12,09,51,22.70
2014,07,12,09,52,22.70
2014,07,12,09,53,22.70
2014,07,12,09,54,22.70
2014,07,12,09,55,22.70
2014,07,12,09,56,22.70
2014,07,12,09,57,22.80
2014,07,12,09,58,22.80
2014,07,12,09,59,22.80
2014,07,12,10,00,22.80
2014,07,12,10,01,22.80
2014,07,12,10,02,22.80
2014,07,12,10,03,22.90
2014,07,12,10,04,22.90
2014,07,12,10,05,22.90
2014,07,12,10,06,23.00
2014,07,12,10,07,23.00
2014,07,12,10,08,23.10
2014,07,12,10,09,23.10
2014,07,12,10,10,23.20
2014,07,12,10,11,23.20
2014,07,12,10,12,23.20
2014,07,12,10,13,23.20
2014,07,12,10,14,23.20
2014,07,12,10,15,23.20
2014,07,12,10,16,23.20
2014,07,12,10,17,23.20
2014,07,12,10,18,23.20
2014,07,12,10,19,23.20
2014,07,12,10,20,23.30
2014,07,12,10,21,23.30
2014,07,12,10,22,23.30
2014,07,12,10,23,23.30
2014,07,12,10,24,23.30
2014,07,12,10,25,23.40
2014,07,12,10,26,23.40
2014,07,12,10,27,23.40
2014,07,12,10,28,23.50
2014,07,12,10,29,23.60
2014,07,12,10,30,23.60
2014,07,12,10,31,23.70
2014,07,12,10,32,23.80
2014,07,12,10,33,23.90
2014,07,12,10,34,23.90
2014,07,12,10,35,23.90
2014,07,12,10,36,23.90
2014,07,12,10,37,23.90
2014,07,12,10,38,24.00
2014,07,12,10,39,24.00
2014,07,12,10,40,24.10
2014,07,12,10,41,24.20
2014,07,12,10,42,24.30
2014,07,12,10,43,24.30
2014,07,12,10,44,24.40
2014,07,12,10,45,24.50
2014,07,12,10,46,24.50
2014,07,12,10,47,24.60
2014,07,12,10,48,24.70
2014,07,12,10,49,24.70
2014,07,12,10,50,24.70
2014,07,12,10,51,24.80
2014,07,12,10,52,24.90
2014,07,12,10,53,25.00
2014,07,12,10,54,25.20
2014,07,12,10,55,25.30
2014,07,12,10,56,25.50
2014,07,12,10,57,25.60
2014,07,12,10,58,25.60
2014,07,12,10,59,25.60
2014,07,12,11,00,25.50
2014,07,12,11,01,25.40
2014,07,12,11,02,25.40
2014,07,12,11,03,25.40
2014,07,12,11,04,25.50
2014,07,12,11,05,25.50
2014,07,12,11,06,25.60
2014,07,12,11,07,25.60
2014,07,12,11,08,25.70
2014,07,12,11,09,25.60
2014,07,12,11,10,25.60
2014,07,12,11,11,25.60
2014,07,12,11,12,25.60
2014,07,12,11,13,25.60
2014,07,12,11,14,25.50
2014,07,12,11,15,25.40
2014,07,12,11,16,25.40
2014,07,12,11,17,25.30
2014,07,12,11,18,25.30
2014,07,12,11,19,25.30
2014,07,12,11,20,25.30
2014,07,12,11,21,25.30
2014,07,12,11,22,25.30
2014,07,12,11,23,25.20
2014,07,12,11,24,25.10
2014,07,12,11,25,25.00
2014,07,12,11,26,24.90
2014,07,12,11,27,24.90
2014,07,12,11,28,24.90
2014,07,12,11,29,24.90
2014,07,12,11,30,24.90
2014,07,12,11,31,24.90
2014,07,12,11,32,24.90
2014,07,12,11,33,24.90
2014,07,12,11,34,25.00
2014,07,12,11,35,25.10
2014,07,12,11,36,25.10
2014,07,12,11,37,25.10
2014,07,12,11,38,25.20
2014,07,12,11,39,25.20
2014,07,12,11,40,25.20
2014,07,12,11,41,25.30
2014,07,12,11,42,25.30
2014,07,12,11,43,25.30
2014,07,12,11,44,25.40
2014,07,12,11,45,25.50
2014,07,12,11,46,25.50
2014,07,12,11,47,25.60
2014,07,12,11,48,25.60
2014,07,12,11,49,25.70
2014,07,12,11,50,25.60
2014,07,12,11,51,25.60
2014,07,12,11,52,25.50
2014,07,12,11,53,25.40
2014,07,12,11,54,25.50
2014,07,12,11,55,25.50
2014,07,12,11,56,25.50
2014,07,12,11,57,25.60
2014,07,12,11,58,25.70
2014,07,12,11,59,25.80
2014,07,12,12,00,26.00
2014,07,12,12,01,26.20
2014,07,12,12,02,26.20
2014,07,12,12,03,26.10
2014,07,12,12,04,26.10
2014,07,12,12,05,26.10
2014,07,12,12,06,26.20
2014,07,12,12,07,26.20
2014,07,12,12,08,26.30
2014,07,12,12,09,26.40
2014,07,12,12,10,26.30
2014,07,12,12,11,26.30
2014,07,12,12,12,26.30
2014,07,12,12,13,26.30
2014,07,12,12,14,26.20
2014,07,12,12,15,26.20
2014,07,12,12,16,26.30
2014,07,12,12,17,26.30
2014,07,12,12,18,26.30
2014,07,12,12,19,26.30
2014,07,12,12,20,26.40
2014,07,12,12,21,26.40
2014,07,12,12,22,26.40
2014,07,12,12,23,26.50
2014,07,12,12,24,26.50
2014,07,12,12,25,26.70
2014,07,12,12,26,26.90
2014,07,12,12,27,27.10
2014,07,12,12,28,27.30
2014,07,12,12,29,27.50
2014,07,12,12,30,27.70
2014,07,12,12,31,27.90
2014,07,12,12,32,28.10
2014,07,12,12,33,28.30
2014,07,12,12,34,28.30
2014,07,12,12,35,28.40
2014,07,12,12,36,28.50
2014,07,12,12,37,28.60
2014,07,12,12,38,28.70
2014,07,12,12,39,28.80
2014,07,12,12,40,28.80
2014,07,12,12,41,28.80
2014,07,12,12,42,28.90
2014,07,12,12,43,29.00
2014,07,12,12,44,29.00
2014,07,12,12,45,29.00
2014,07,12,12,46,28.90
2014,07,12,12,47,28.70
2014,07,12,12,48,28.60
2014,07,12,12,49,28.50
2014,07,12,12,50,28.40
2014,07,12,12,51,28.40
2014,07,12,12,52,28.40
2014,07,12,12,53,28.40
2014,07,12,12,54,28.40
2014,07,12,12,55,28.50
2014,07,12,12,56,28.60
2014,07,12,12,57,28.60
2014,07,12,12,58,28.70
2014,07,12,12,59,28.90
2014,07,12,13,00,29.00
2014,07,12,13,01,29.10
2014,07,12,13,02,29.10
2014,07,12,13,03,29.20
2014,07,12,13,04,29.20
2014,07,12,13,05,29.20
2014,07,12,13,06,29.30
2014,07,12,13,07,29.30
2014,07,12,13,08,29.40
2014,07,12,13,09,29.50
2014,07,12,13,10,29.50
2014,07,12,13,11,29.50
2014,07,12,13,12,29.50
2014,07,12,13,13,29.50
2014,07,12,13,14,29.60
2014,07,12,13,15,29.60
2014,07,12,13,16,29.50
2014,07,12,13,17,29.50
2014,07,12,13,18,29.50
2014,07,12,13,19,29.50
2014,07,12,13,20,29.50
2014,07,12,13,21,29.50
2014,07,12,13,22,29.60
2014,07,12,13,23,29.60
2014,07,12,13,24,29.70
2014,07,12,13,25,29.70
2014,07,12,13,26,29.70
2014,07,12,13,27,29.70
2014,07,12,13,28,29.70
2014,07,12,13,29,29.70
2014,07,12,13,30,29.60
2014,07,12,13,31,29.60
2014,07,12,13,32,29.60
2014,07,12,13,33,29.70
2014,07,12,13,34,29.70
2014,07,12,13,35,29.70
2014,07,12,13,36,29.70
2014,07,12,13,37,29.60
2014,07,12,13,38,29.60
2014,07,12,13,39,29.70
2014,07,12,13,40,29.80
2014,07,12,13,41,29.90
2014,07,12,13,42,29.90
2014,07,12,13,43,29.90
2014,07,12,13,44,30.00
2014,07,12,13,45,30.10
2014,07,12,13,46,30.10
2014,07,12,13,47,30.10
2014,07,12,13,48,30.10
2014,07,12,13,49,30.20
2014,07,12,13,50,30.20
2014,07,12,13,51,30.20
2014,07,12,13,52,30.20
2014,07,12,13,53,30.20
2014,07,12,13,54,30.20
2014,07,12,13,55,30.10
2014,07,12,13,56,30.00
2014,07,12,13,57,29.90
2014,07,12,13,58,29.80
2014,07,12,13,59,29.80
2014,07,12,14,00,29.60
2014,07,12,14,01,29.50
2014,07,12,14,02,29.30
2014,07,12,14,03,29.30
2014,07,12,14,04,29.10
2014,07,12,14,05,29.00
2014,07,12,14,06,28.80
2014,07,12,14,07,28.80
2014,07,12,14,08,28.70
2014,07,12,14,09,28.60
2014,07,12,14,10,28.60
2014,07,12,14,11,28.60
2014,07,12,14,12,28.50
2014,07,12,14,13,28.50
2014,07,12,14,14,28.50
2014,07,12,14,15,28.50
2014,07,12,14,16,28.50
2014,07,12,14,17,28.40
2014,07,12,14,18,28.40
2014,07,12,14,19,28.40
2014,07,12,14,20,28.30
2014,07,12,14,21,28.20
2014,07,12,14,22,28.20
2014,07,12,14,23,28.20
2014,07,12,14,24,28.20
2014,07,12,14,25,28.20
2014,07,12,14,26,28.20
2014,07,12,14,27,28.30
2014,07,12,14,28,28.30
2014,07,12,14,29,28.30
2014,07,12,14,30,28.40
2014,07,12,14,31,28.40
2014,07,12,14,32,28.40
2014,07,12,14,33,28.40
2014,07,12,14,34,28.30
2014,07,12,14,35,28.30
2014,07,12,14,36,28.20
2014,07,12,14,37,28.10
2014,07,12,14,38,28.00
2014,07,12,14,39,27.90
2014,07,12,14,40,27.90
2014,07,12,14,41,27.80
2014,07,12,14,42,27.70
2014,07,12,14,43,27.60
2014,07,12,14,44,27.50
2014,07,12,14,45,27.50
2014,07,12,14,46,27.40
2014,07,12,14,47,27.30
2014,07,12,14,48,27.30
2014,07,12,14,49,27.20
2014,07,12,14,50,27.10
2014,07,12,14,51,27.10
2014,07,12,14,52,27.00
2014,07,12,14,53,26.90
2014,07,12,14,54,26.80
2014,07,12,14,55,26.80
2014,07,12,14,56,26.80
2014,07,12,14,57,26.90
2014,07,12,14,58,26.90
2014,07,12,14,59,26.90
2014,07,12,15,00,26.90
2014,07,12,15,01,26.90
2014,07,12,15,02,26.80
2014,07,12,15,03,26.80
2014,07,12,15,04,26.70
2014,07,12,15,05,26.70
2014,07,12,15,06,26.70
2014,07,12,15,07,26.80
2014,07,12,15,08,26.80
2014,07,12,15,09,26.80
2014,07,12,15,10,26.80
2014,07,12,15,11,26.80
2014,07,12,15,12,26.80
2014,07,12,15,13,26.90
2014,07,12,15,14,26.90
2014,07,12,15,15,27.10
2014,07,12,15,16,27.20
2014,07,12,15,17,27.30
2014,07,12,15,18,27.40
2014,07,12,15,19,27.50
2014,07,12,15,20,27.70
2014,07,12,15,21,27.80
2014,07,12,15,22,27.90
2014,07,12,15,23,28.00
2014,07,12,15,24,28.10
2014,07,12,15,25,28.20
2014,07,12,15,26,28.30
2014,07,12,15,27,28.40
2014,07,12,15,28,28.50
2014,07,12,15,29,28.60
2014,07,12,15,30,28.70
2014,07,12,15,31,28.80
2014,07,12,15,32,28.80
2014,07,12,15,33,28.80
2014,07,12,15,34,28.90
2014,07,12,15,35,29.00
2014,07,12,15,36,29.10
2014,07,12,15,37,29.20
2014,07,12,15,38,29.30
2014,07,12,15,39,29.40
2014,07,12,15,40,29.40
2014,07,12,15,41,29.50
2014,07,12,15,42,29.60
2014,07,12,15,43,29.60
2014,07,12,15,44,29.70
2014,07,12,15,45,29.70
2014,07,12,15,46,29.80
2014,07,12,15,47,29.90
2014,07,12,15,48,29.90
2014,07,12,15,49,29.80
2014,07,12,15,50,29.60
2014,07,12,15,51,29.60
2014,07,12,15,52,29.50
2014,07,12,15,53,29.60
2014,07,12,15,54,29.60
2014,07,12,15,55,29.70
2014,07,12,15,56,29.80
2014,07,12,15,57,29.80
2014,07,12,15,58,29.90
2014,07,12,15,59,29.90
2014,07,12,16,00,29.90
2014,07,12,16,01,29.90
2014,07,12,16,02,30.00
2014,07,12,16,03,30.10
2014,07,12,16,04,30.20
2014,07,12,16,05,30.20
2014,07,12,16,06,30.20
2014,07,12,16,07,30.20
2014,07,12,16,08,30.20
2014,07,12,16,09,30.20
2014,07,12,16,10,30.20
2014,07,12,16,11,30.30
2014,07,12,16,12,30.30
2014,07,12,16,13,30.30
2014,07,12,16,14,30.40
2014,07,12,16,15,30.30
2014,07,12,16,16,30.30
2014,07,12,16,17,30.30
2014,07,12,16,18,30.30
2014,07,12,16,19,30.30
2014,07,12,16,20,30.30
2014,07,12,16,21,30.30
2014,07,12,16,22,30.20
2014,07,12,16,23,30.20
2014,07,12,16,24,30.20
2014,07,12,16,25,30.20
2014,07,12,16,26,30.30
2014,07,12,16,27,30.30
2014,07,12,16,28,30.30
2014,07,12,16,29,30.40
2014,07,12,16,30,30.40
2014,07,12,16,31,30.40
2014,07,12,16,32,30.40
2014,07,12,16,33,30.40
2014,07,12,16,34,30.40
2014,07,12,16,35,30.40
2014,07,12,16,36,30.30
2014,07,12,16,37,30.30
2014,07,12,16,38,30.30
2014,07,12,16,39,30.30
2014,07,12,16,40,30.30
2014,07,12,16,41,30.30
2014,07,12,16,42,30.30
2014,07,12,16,43,30.20
2014,07,12,16,44,30.20
2014,07,12,16,45,30.10
2014,07,12,16,46,30.10
2014,07,12,16,47,30.00
2014,07,12,16,48,29.90
2014,07,12,16,49,29.80
2014,07,12,16,50,29.70
2014,07,12,16,51,29.50
2014,07,12,16,52,29.30
2014,07,12,16,53,29.20
2014,07,12,16,54,29.20
2014,07,12,16,55,29.10
2014,07,12,16,56,29.10
2014,07,12,16,57,29.10
2014,07,12,16,58,29.10
2014,07,12,16,59,29.10
2014,07,12,17,00,29.10
2014,07,12,17,01,29.20
2014,07,12,17,02,29.20
2014,07,12,17,03,29.20
2014,07,12,17,04,29.20
2014,07,12,17,05,29.20
2014,07,12,17,06,29.20
2014,07,12,17,07,29.20
2014,07,12,17,08,29.20
2014,07,12,17,09,29.20
2014,07,12,17,10,29.20
2014,07,12,17,11,29.20
2014,07,12,17,12,29.20
2014,07,12,17,13,29.20
2014,07,12,17,14,29.20
2014,07,12,17,15,29.20
2014,07,12,17,16,29.30
2014,07,12,17,17,29.30
2014,07,12,17,18,29.30
2014,07,12,17,19,29.40